User: anonymous   Login
Location: Lawrence
(38.9720°N, 95.2350°W)
Time: 10:20:38
(UTC-06:00)
Language:

ALOS - Orbit

View from above orbital plane
View from above orbital plane
View from above satellite
View from above satellite

Ground track
Ground track

The orbit data is extracted from the following two-line orbital elements,

1 28931U 06002A   14324.90399271  .00001499  00000-0  31143-3 0  1096
2 28931 097.9632 017.3476 0002423 077.8518 282.2957 14.61466286470219
Epoch (UTC): 20 November 2014 21:41:44
Eccentricity: 0.0002423
inclination: 97.9632°
perigee height: 687 km
apogee height: 690 km
right ascension of ascending node: 17.3476°
argument of perigee: 77.8518°
revolutions per day: 14.61466286
mean anomaly at epoch: 282.2957°
orbit number at epoch: 47021

The dashed part of the orbit path shows where the satellite is in the earth's shadow,  

DLR